• In Österreich
  • Länderverzeichnis
  • Für 7 Tage
  • Wassertemperatur
  • Satellitenkarten
  • Wetterkarte
  • News
  • Widgets
  • user-avatar
    Anmelden

    Stündliche Wetter Ondjiwa

    Heute, 19 April, Donnerstag

    Zeit Temperatur Niederschläge Wind Luftdruck Luftfeuchtigkeit
    00:00 +23°C° 0 mm 1 m/S 669 mmHg 63%
    01:00 +21°C° 0 mm 2 m/S 668 mmHg 67%
    02:00 +21°C° 0 mm 2 m/S 668 mmHg 68%
    03:00 +21°C° 0 mm 1 m/S 668 mmHg 70%
    04:00 +21°C° 0 mm 1 m/S 668 mmHg 71%
    05:00 +20°C° 0 mm 2 m/S 668 mmHg 71%
    06:00 +20°C° 0 mm 2 m/S 669 mmHg 71%
    07:00 +20°C° 0 mm 2 m/S 669 mmHg 70%
    08:00 +24°C° 0 mm 2 m/S 670 mmHg 60%
    09:00 +27°C° 0 mm 3 m/S 670 mmHg 51%
    10:00 +29°C° 0 mm 3 m/S 671 mmHg 42%
    11:00 +30°C° 0 mm 3 m/S 670 mmHg 38%
    12:00 +31°C° 0 mm 3 m/S 670 mmHg 34%
    13:00 +34°C° 0 mm 4 m/S 670 mmHg 29%
    14:00 +33°C° 0 mm 3 m/S 669 mmHg 30%
    15:00 +33°C° 0 mm 3 m/S 669 mmHg 30%
    16:00 +33°C° 0 mm 3 m/S 668 mmHg 30%
    17:00 +30°C° 0 mm 2 m/S 668 mmHg 35%
    18:00 +28°C° 0 mm 2 m/S 668 mmHg 39%
    19:00 +27°C° 0 mm 2 m/S 668 mmHg 44%
    20:00 +26°C° 0 mm 1 m/S 668 mmHg 46%
    21:00 +25°C° 0 mm 1 m/S 668 mmHg 48%
    22:00 +25°C° 0 mm 1 m/S 669 mmHg 49%
    23:00 +24°C° 0 mm 1 m/S 668 mmHg 52%

    Morgen, 20 April, Freitag

    Zeit Temperatur Niederschläge Wind Luftdruck Luftfeuchtigkeit
    00:00 +23°C° 0 mm 1 m/S 668 mmHg 54%
    01:00 +23°C° 0 mm 1 m/S 668 mmHg 56%
    02:00 +22°C° 0 mm 1 m/S 668 mmHg 57%
    03:00 +22°C° 0 mm 1 m/S 668 mmHg 59%
    04:00 +21°C° 0 mm 1 m/S 668 mmHg 61%
    05:00 +21°C° 0 mm 1 m/S 668 mmHg 62%
    06:00 +21°C° 0 mm 1 m/S 668 mmHg 63%
    07:00 +21°C° 0 mm 1 m/S 669 mmHg 64%
    08:00 +24°C° 0 mm 2 m/S 669 mmHg 56%
    09:00 +26°C° 0 mm 2 m/S 670 mmHg 48%
    10:00 +29°C° 0 mm 2 m/S 671 mmHg 40%
    11:00 +30°C° 0 mm 2 m/S 670 mmHg 36%
    12:00 +31°C° 0 mm 2 m/S 670 mmHg 32%
    13:00 +34°C° 0 mm 2 m/S 670 mmHg 28%
    14:00 +34°C° 0 mm 2 m/S 669 mmHg 28%
    15:00 +34°C° 0 mm 2 m/S 669 mmHg 28%
    16:00 +34°C° 0 mm 2 m/S 668 mmHg 27%
    17:00 +31°C° 0 mm 2 m/S 668 mmHg 32%
    18:00 +29°C° 0 mm 1 m/S 668 mmHg 36%
    19:00 +27°C° 0 mm 1 m/S 668 mmHg 40%
    20:00 +27°C° 0 mm 1 m/S 668 mmHg 41%
    21:00 +26°C° 0 mm 1 m/S 668 mmHg 43%
    22:00 +26°C° 0 mm 1 m/S 668 mmHg 44%
    23:00 +25°C° 0 mm 1 m/S 668 mmHg 46%

    übermorgen, 21 April, Samstag

    Zeit Temperatur Niederschläge Wind Luftdruck Luftfeuchtigkeit
    00:00 +24°C° 0 mm 1 m/S 668 mmHg 48%
    01:00 +23°C° 0 mm 1 m/S 668 mmHg 50%
    02:00 +23°C° 0 mm 1 m/S 668 mmHg 52%
    03:00 +23°C° 0 mm 1 m/S 668 mmHg 54%
    04:00 +21°C° 0 mm 2 m/S 668 mmHg 56%
    05:00 +21°C° 0 mm 2 m/S 668 mmHg 58%
    06:00 +22°C° 0 mm 1 m/S 668 mmHg 59%
    07:00 +22°C° 0 mm 1 m/S 669 mmHg 61%
    08:00 +25°C° 0 mm 1 m/S 670 mmHg 53%
    09:00 +28°C° 0 mm 1 m/S 670 mmHg 45%
    10:00 +28°C° 0 mm 0 m/S 671 mmHg 38%
    11:00 +31°C° 0 mm 1 m/S 671 mmHg 35%
    12:00 +33°C° 0 mm 1 m/S 670 mmHg 31%
    13:00 +34°C° 0 mm 1 m/S 670 mmHg 28%
    14:00 +33°C° 0 mm 1 m/S 669 mmHg 28%
    15:00 +34°C° 0 mm 2 m/S 669 mmHg 27%
    16:00 +34°C° 0 mm 2 m/S 668 mmHg 27%
    17:00 +31°C° 0 mm 2 m/S 668 mmHg 31%
    18:00 +29°C° 0 mm 1 m/S 668 mmHg 35%
    19:00 +27°C° 0 mm 1 m/S 668 mmHg 39%
    20:00 +27°C° 0 mm 1 m/S 668 mmHg 40%
    21:00 +26°C° 0 mm 1 m/S 668 mmHg 42%
    22:00 +25°C° 0 mm 1 m/S 669 mmHg 44%
    23:00 +25°C° 0 mm 1 m/S 668 mmHg 45%

    22 April, Sonntag

    Zeit Temperatur Niederschläge Wind Luftdruck Luftfeuchtigkeit
    00:00 +24°C° 0 mm 1 m/S 668 mmHg 47%
    01:00 +24°C° 0 mm 1 m/S 668 mmHg 48%
    02:00 +23°C° 0 mm 1 m/S 668 mmHg 51%
    03:00 +22°C° 0 mm 1 m/S 668 mmHg 53%
    04:00 +22°C° 0 mm 1 m/S 667 mmHg 55%
    05:00 +22°C° 0 mm 1 m/S 668 mmHg 56%
    06:00 +22°C° 0 mm 1 m/S 668 mmHg 57%
    07:00 +22°C° 0 mm 1 m/S 669 mmHg 58%
    08:00 +25°C° 0 mm 1 m/S 669 mmHg 51%
    09:00 +28°C° 0 mm 1 m/S 670 mmHg 44%
    10:00 +30°C° 0 mm 1 m/S 671 mmHg 37%
    11:00 +31°C° 0 mm 1 m/S 670 mmHg 33%
    12:00 +33°C° 0 mm 1 m/S 670 mmHg 30%
    13:00 +34°C° 0 mm 1 m/S 670 mmHg 26%
    14:00 +34°C° 0 mm 1 m/S 669 mmHg 26%
    15:00 +34°C° 0 mm 1 m/S 669 mmHg 26%
    16:00 +33°C° 0 mm 1 m/S 668 mmHg 26%
    17:00 +31°C° 0 mm 1 m/S 668 mmHg 30%
    18:00 +29°C° 0 mm 1 m/S 668 mmHg 34%
    19:00 +27°C° 0 mm 1 m/S 668 mmHg 38%
    20:00 +27°C° 0 mm 1 m/S 668 mmHg 40%
    21:00 +26°C° 0 mm 1 m/S 668 mmHg 41%
    22:00 +25°C° 0 mm 1 m/S 668 mmHg 42%
    23:00 +25°C° 0 mm 1 m/S 668 mmHg 43%

    23 April, Montag

    Zeit Temperatur Niederschläge Wind Luftdruck Luftfeuchtigkeit
    00:00 +24°C° 0 mm 1 m/S 668 mmHg 45%
    01:00 +24°C° 0 mm 1 m/S 668 mmHg 46%
    02:00 +23°C° 0 mm 1 m/S 668 mmHg 47%
    03:00 +23°C° 0 mm 1 m/S 668 mmHg 48%
    04:00 +22°C° 0 mm 1 m/S 668 mmHg 50%
    05:00 +22°C° 0 mm 1 m/S 668 mmHg 51%
    06:00 +22°C° 0 mm 1 m/S 669 mmHg 52%
    07:00 +22°C° 0 mm 1 m/S 669 mmHg 53%
    08:00 +25°C° 0 mm 1 m/S 670 mmHg 46%
    09:00 +28°C° 0 mm 1 m/S 670 mmHg 39%
    10:00 +30°C° 0 mm 1 m/S 671 mmHg 32%
    11:00 +32°C° 0 mm 1 m/S 671 mmHg 30%
    12:00 +33°C° 0 mm 1 m/S 670 mmHg 27%
    13:00 +35°C° 0 mm 1 m/S 670 mmHg 24%
    14:00 +34°C° 0 mm 1 m/S 669 mmHg 24%
    15:00 +34°C° 0 mm 1 m/S 669 mmHg 25%
    16:00 +33°C° 0 mm 1 m/S 669 mmHg 25%
    17:00 +31°C° 0 mm 1 m/S 668 mmHg 29%
    18:00 +30°C° 0 mm 1 m/S 668 mmHg 33%
    19:00 +28°C° 0 mm 2 m/S 668 mmHg 37%
    20:00 +27°C° 0 mm 2 m/S 668 mmHg 40%
    21:00 +26°C° 0 mm 2 m/S 668 mmHg 42%
    22:00 +25°C° 0 mm 2 m/S 669 mmHg 44%
    23:00 +25°C° 0 mm 1 m/S 668 mmHg 46%

    24 April, Dienstag

    Zeit Temperatur Niederschläge Wind Luftdruck Luftfeuchtigkeit
    00:00 +24°C° 0 mm 1 m/S 668 mmHg 47%
    01:00 +24°C° 0 mm 1 m/S 668 mmHg 49%
    02:00 +23°C° 0 mm 1 m/S 668 mmHg 49%
    03:00 +23°C° 0 mm 2 m/S 668 mmHg 49%
    04:00 +23°C° 0 mm 2 m/S 668 mmHg 49%
    05:00 +23°C° 0 mm 1 m/S 668 mmHg 49%
    06:00 +23°C° 0 mm 1 m/S 669 mmHg 48%
    07:00 +23°C° 0 mm 1 m/S 669 mmHg 47%
    08:00 +26°C° 0 mm 1 m/S 670 mmHg 41%
    09:00 +28°C° 0 mm 1 m/S 670 mmHg 35%
    10:00 +31°C° 0 mm 1 m/S 671 mmHg 29%
    11:00 +32°C° 0 mm 1 m/S 671 mmHg 27%
    12:00 +34°C° 0 mm 1 m/S 670 mmHg 24%
    13:00 +35°C° 0 mm 1 m/S 670 mmHg 22%
    14:00 +35°C° 0 mm 1 m/S 669 mmHg 22%
    15:00 +34°C° 0 mm 1 m/S 669 mmHg 22%
    16:00 +34°C° 0 mm 1 m/S 668 mmHg 22%
    17:00 +32°C° 0 mm 1 m/S 668 mmHg 25%
    18:00 +30°C° 0 mm 1 m/S 668 mmHg 29%
    19:00 +28°C° 0 mm 1 m/S 668 mmHg 32%
    20:00 +27°C° 0 mm 1 m/S 668 mmHg 34%
    21:00 +26°C° 0 mm 1 m/S 668 mmHg 35%
    22:00 +25°C° 0 mm 1 m/S 668 mmHg 37%
    23:00 +25°C° 0 mm 1 m/S 668 mmHg 39%
    Mehr zeigen